COSMOS 2251 DEB, 35456

Orbit data source: Space-Track

COSMOS 2251 DEB, 35456 is space debris in LEO originally from a launch on Wed, 16 Jun 1993 UTC launched from the Plesetsk Missile And Space Complex (PKMTR). The debris from Iridium 33, an American commercial communications satellite, has been tracked extensively since its accidental collision with the defunct Russian satellite Cosmos 2251 in 2009. This event, occurring at high speed in low Earth orbit (LEO), generated thousands of pieces of space debris, significantly increasing the risk of further collisions. The Iridium 33 debris cloud has impacted space traffic management and orbital debris mitigation strategies, making it a subject of ongoing study in space situational awareness.

Loading next visibility...
Identifier
35456, 1993-036ALA
Orbit
LEO
Country
Flag of CISCIS
Related business
Manufacturer
Unknown
Mission
Spacecraft
Bus & Motor
Unknown
Mass
Unknown
Launch date (UTC)
1993-06-16 (33 years ago)
Launch vehicle
Unknown
Launch site
Plesetsk Missile And Space Complex (PKMTR)
Object type
Payload
Rocket body
Debris
Shape & HBR
Unknown shape, 0.1 m
Radar Cross Section
Small (<0.1 m²)

Expand to show TLE details & history
Last TLE update: 6 days ago

TLE from 6 days ago
0 COSMOS 2251 DEB
1 35456U 93036ALA 26232.01289059  .00010332  00000-0  15259-2 0  9996
2 35456  73.9501 347.9926 0058561 137.6550 222.9165 14.74166879695585
Epoch: 2026-08-20T00:18Z
TLE epoch observation values (Epoch: 2026-08-20T00:18:33.746Z)
Latitude
-0.00013°
Longitude
14.99385°
Altitude
680.698 km
Speed
7.5 km/s
True Right ascension
23h 11m 58s
True Declination
0° 00' 00"
Sunlit
Object was in full shadow at epoch
Visualization orbit readout
Latitude
Unknown
Longitude
Unknown
Altitude
Unknown
Speed
Unknown
Apparent Right ascension
Unknown
Apparent Declination
Unknown
Sunlit
N/A
Visualization observer readout
Local Sidereal Time
23:45:33
Azimuth
Unknown
Elevation
Unknown
Doppler factor
Unknown
Orbital elements
Apogee altitude
686.517 km
Perigee altitude
604.256 km
Semi-major axis
7,023.523 km
Eccentricity
0.00586
Inclination
73.9501°
RAAN
347.9926°
Arg. of periapsis
137.655°
True anomaly
222.462°
Mean anomaly
222.9165°
Eccentric anomaly
222.689°
Mean motion
3.68732 °/min
Orbital period
97.63 mins
BSTAR
0.0015259
Loading maneuver chart data...
Computing Atmospheric mass density...
Loading historical data...
Loading historical data...
Loading historical data...
Loading historical data...
Loading historical data...
Loading historical data...
Loading historical data...

Documentation

Showing up to 5 results
|